Location: *
(46.0770°N, 1.6444°E)
Time: 14:42:33
(UTC+00:00)

In-Cosmos 22 - Pass Details

Date: 16 September 2019
Orbit: 785 x 876 km, 81.2° (Epoch: 20 October)

Event Time Altitude Azimuth Distance (km) Brightness Sun altitude
Rises 20:16:51 0° 346° (NNW) 3,298 7.9 -22.8°
Reaches altitude 10° 20:19:14 10° 344° (NNW) 2,371 7.1 -23.1°
Maximum altitude 20:24:31 66° 263° (W) 879 4.4 -23.9°
Enters shadow 20:27:02 32° 191° (SSW) 1,371 5.1 -24.3°
